| time (UTC) | temp C | wind direction | speed KPH | gust KPH | rain 1hr cm | rain 24hr cm | rain mn cm | humidity % | barometer mb |
| 20260505035230 | 13 | 184 | 0.0 | 0.0 | 0.00 | 0.00 | 0.00 | 68 | |
| 20260505034728 | 13 | 190 | 0.0 | 0.0 | 0.00 | 0.00 | 0.00 | 68 | |
| 20260505034225 | 12 | 204 | 0.0 | 1.6 | 0.00 | 0.00 | 0.00 | 69 | |
| 20260505033721 | 13 | 192 | 0.0 | 0.0 | 0.00 | 0.00 | 0.00 | 69 | |
| 20260505033219 | 13 | 184 | 0.0 | 0.0 | 0.00 | 0.00 | 0.00 | 69 | |
| 20260505032717 | 13 | 186 | 0.0 | 0.0 | 0.00 | 0.00 | 0.00 | 68 | |
| 20260505032212 | 13 | 186 | 0.0 | 0.0 | 0.00 | 0.00 | 0.00 | 68 | |
| 20260505031710 | 13 | 200 | 0.0 | 1.6 | 0.00 | 0.00 | 0.00 | 68 | |
| 20260505031206 | 13 | 190 | 0.0 | 1.6 | 0.00 | 0.00 | 0.00 | 67 | |
| 20260505030703 | 13 | 192 | 0.0 | 0.0 | 0.00 | 0.00 | 0.00 | 66 | |
| 20260505030159 | 13 | 203 | 1.6 | 4.8 | 0.00 | 0.00 | 0.00 | 66 | |
| 20260505025655 | 13 | 210 | 0.0 | 0.0 | 0.00 | 0.00 | 0.00 | 66 | |
| 20260505025153 | 13 | 192 | 0.0 | 0.0 | 0.00 | 0.00 | 0.00 | 67 | |
| 20260505024651 | 13 | 165 | 0.0 | 0.0 | 0.00 | 0.00 | 0.00 | 67 | |
| 20260505024147 | 13 | 173 | 0.0 | 0.0 | 0.00 | 0.00 | 0.00 | 67 | |
| 20260505023645 | 13 | 180 | 0.0 | 0.0 | 0.00 | 0.00 | 0.00 | 68 | |
| 20260505023142 | 13 | 187 | 0.0 | 0.0 | 0.00 | 0.00 | 0.00 | 68 | |
| 20260505022640 | 13 | 167 | 0.0 | 0.0 | 0.00 | 0.00 | 0.00 | 68 | |
| 20260505022137 | 13 | 164 | 0.0 | 0.0 | 0.00 | 0.00 | 0.00 | 67 | |
| 20260505021633 | 13 | 182 | 0.0 | 0.0 | 0.00 | 0.00 | 0.00 | 66 | |
| 20260505021130 | 14 | 176 | 0.0 | 0.0 | 0.00 | 0.00 | 0.00 | 65 | |
| 20260505020625 | 15 | 177 | 0.0 | 0.0 | 0.00 | 0.00 | 0.00 | 64 | |
| 20260505020122 | 15 | 182 | 0.0 | 4.8 | 0.00 | 0.00 | 0.00 | 63 | |
| 20260505015619 | 15 | 199 | 3.2 | 4.8 | 0.00 | 0.00 | 0.00 | 62 | |
| 20260505015116 | 15 | 209 | 3.2 | 4.8 | 0.00 | 0.00 | 0.00 | 62 | |
| 20260505014612 | 15 | 188 | 3.2 | 9.7 | 0.00 | 0.00 | 0.00 | 61 | |
| 20260505014110 | 15 | 246 | 6.4 | 9.7 | 0.00 | 0.00 | 0.00 | 61 | |
| 20260505013607 | 15 | 207 | 3.2 | 6.4 | 0.00 | 0.00 | 0.00 | 61 | |
| 20260505013104 | 15 | 216 | 4.8 | 6.4 | 0.00 | 0.00 | 0.00 | 61 | |
| 20260505012602 | 15 | 226 | 3.2 | 4.8 | 0.00 | 0.00 | 0.00 | 61 | |
| 20260505012059 | 16 | 199 | 3.2 | 6.4 | 0.00 | 0.00 | 0.00 | 60 | |
| 20260505011554 | 16 | 248 | 4.8 | 9.7 | 0.00 | 0.00 | 0.00 | 60 | |
| 20260505011052 | 16 | 220 | 4.8 | 9.7 | 0.00 | 0.00 | 0.00 | 60 | |
| 20260505010547 | 16 | 241 | 3.2 | 9.7 | 0.00 | 0.00 | 0.00 | 60 | |
| 20260505010044 | 16 | 236 | 6.4 | 11.3 | 0.00 | 0.00 | 0.00 | 60 | |
| 20260505005540 | 16 | 201 | 3.2 | 4.8 | 0.00 | 0.00 | 0.00 | 59 | |
| 20260505005038 | 16 | 212 | 3.2 | 6.4 | 0.00 | 0.00 | 0.00 | 59 | |
| 20260505004534 | 16 | 234 | 4.8 | 4.8 | 0.00 | 0.00 | 0.00 | 59 | |
| 20260505004031 | 16 | 208 | 6.4 | 11.3 | 0.00 | 0.00 | 0.00 | 58 | |
| 20260505003529 | 16 | 208 | 3.2 | 9.7 | 0.00 | 0.00 | 0.00 | 58 | |
| 20260505003026 | 16 | 200 | 3.2 | 11.3 | 0.00 | 0.00 | 0.00 | 58 | |
| 20260505002526 | 16 | 254 | 6.4 | 14.5 | 0.00 | 0.00 | 0.00 | 57 | |
| 20260505002026 | 16 | 206 | 6.4 | 9.7 | 0.00 | 0.00 | 0.00 | 58 | |
| 20260505001522 | 17 | 202 | 4.8 | 11.3 | 0.00 | 0.00 | 0.00 | 57 | |
| 20260505001019 | 17 | 187 | 8.0 | 14.5 | 0.00 | 0.00 | 0.00 | 57 | |
| 20260505000517 | 17 | 255 | 9.7 | 9.7 | 0.00 | 0.00 | 0.00 | 56 | |
| 20260505000014 | 17 | 145 | 3.2 | 11.3 | 0.00 | 0.00 | 0.00 | 56 | |
| 20260504235511 | 17 | 258 | 9.7 | 16.1 | 0.00 | 0.00 | 0.00 | 55 | |
| 20260504235007 | 17 | 225 | 4.8 | 9.7 | 0.00 | 0.00 | 0.00 | 56 | |
| 20260504234505 | 17 | 261 | 11.3 | 17.7 | 0.00 | 0.00 | 0.00 | 55 | |
| 20260504234001 | 17 | 190 | 4.8 | 14.5 | 0.00 | 0.00 | 0.00 | 55 | |
| 20260504233456 | 17 | 234 | 6.4 | 9.7 | 0.00 | 0.00 | 0.00 | 54 | |
| 20260504232954 | 17 | 236 | 12.9 | 17.7 | 0.00 | 0.00 | 0.00 | 54 | |
| 20260504232451 | 17 | 258 | 4.8 | 9.7 | 0.00 | 0.00 | 0.00 | 54 | |
| 20260504231948 | 17 | 252 | 6.4 | 20.9 | 0.00 | 0.00 | 0.00 | 54 | |
| 20260504231444 | 17 | 245 | 8.0 | 14.5 | 0.00 | 0.00 | 0.00 | 54 | |
| 20260504230941 | 17 | 267 | 8.0 | 22.5 | 0.00 | 0.00 | 0.00 | 53 | |
| 20260504230437 | 18 | 245 | 9.7 | 17.7 | 0.00 | 0.00 | 0.00 | 54 | |
| 20260504225937 | 18 | 239 | 8.0 | 11.3 | 0.00 | 0.00 | 0.00 | 54 | |
| 20260504225433 | 18 | 266 | 4.8 | 11.3 | 0.00 | 0.00 | 0.00 | 53 | |
| 20260504224930 | 17 | 241 | 8.0 | 16.1 | 0.00 | 0.00 | 0.00 | 54 | |
| 20260504224427 | 17 | 230 | 14.5 | 17.7 | 0.00 | 0.00 | 0.00 | 54 | |
| 20260504223924 | 17 | 245 | 6.4 | 17.7 | 0.00 | 0.00 | 0.00 | 54 | |
| 20260504223419 | 18 | 256 | 16.1 | 32.2 | 0.00 | 0.00 | 0.00 | 53 | |
| 20260504222915 | 18 | 269 | 22.5 | 30.6 | 0.00 | 0.00 | 0.00 | 51 | |
| 20260504222413 | 18 | 284 | 14.5 | 22.5 | 0.00 | 0.00 | 0.00 | 52 | |
| 20260504221911 | 18 | 249 | 11.3 | 22.5 | 0.00 | 0.00 | 0.00 | 52 | |
| 20260504221408 | 18 | 271 | 6.4 | 17.7 | 0.00 | 0.00 | 0.00 | 52 | |
| 20260504220905 | 19 | 249 | 17.7 | 20.9 | 0.00 | 0.00 | 0.00 | 50 | |
| 20260504220401 | 18 | 261 | 9.7 | 30.6 | 0.00 | 0.00 | 0.00 | 51 | |
| 20260504215859 | 18 | 239 | 14.5 | 25.7 | 0.00 | 0.00 | 0.00 | 51 | |
| 20260504215355 | 18 | 264 | 16.1 | 22.5 | 0.00 | 0.00 | 0.00 | 51 | |
| 20260504214851 | 18 | 237 | 6.4 | 22.5 | 0.00 | 0.00 | 0.00 | 52 | |
| 20260504214348 | 18 | 235 | 20.9 | 30.6 | 0.00 | 0.00 | 0.00 | 51 | |
| 20260504213845 | 18 | 242 | 9.7 | 17.7 | 0.00 | 0.00 | 0.00 | 51 | |
| 20260504213340 | 18 | 189 | 6.4 | 20.9 | 0.00 | 0.00 | 0.00 | 52 | |
| 20260504212838 | 18 | 248 | 11.3 | 17.7 | 0.00 | 0.00 | 0.00 | 51 | |
| 20260504212334 | 18 | 248 | 9.7 | 20.9 | 0.00 | 0.00 | 0.00 | 50 | |
| 20260504211832 | 18 | 243 | 12.9 | 32.2 | 0.00 | 0.00 | 0.00 | 50 | |
| 20260504211328 | 18 | 251 | 6.4 | 17.7 | 0.00 | 0.00 | 0.00 | 50 | |
| 20260504210826 | 20 | 252 | 19.3 | 27.4 | 0.00 | 0.00 | 0.00 | 47 | |
| 20260504210323 | 20 | 208 | 12.9 | 32.2 | 0.00 | 0.00 | 0.00 | 47 | |
| 20260504205820 | 20 | 282 | 20.9 | 27.4 | 0.00 | 0.00 | 0.00 | 47 | |
| 20260504205318 | 20 | 263 | 30.6 | 33.8 | 0.00 | 0.00 | 0.00 | 46 | |
| 20260504204816 | 20 | 263 | 11.3 | 22.5 | 0.00 | 0.00 | 0.00 | 48 | |
| 20260504204314 | 19 | 222 | 16.1 | 30.6 | 0.00 | 0.00 | 0.00 | 48 | |
| 20260504203813 | 20 | 215 | 14.5 | 30.6 | 0.00 | 0.00 | 0.00 | 47 | |
| 20260504203309 | 19 | 228 | 19.3 | 27.4 | 0.00 | 0.00 | 0.00 | 49 | |
| 20260504202804 | 19 | 227 | 9.7 | 22.5 | 0.00 | 0.00 | 0.00 | 48 | |
| 20260504202302 | 20 | 286 | 12.9 | 16.1 | 0.00 | 0.00 | 0.00 | 47 | |
| 20260504201758 | 19 | 259 | 12.9 | 17.7 | 0.00 | 0.00 | 0.00 | 49 | |
| 20260504201255 | 19 | 265 | 16.1 | 30.6 | 0.00 | 0.00 | 0.00 | 48 | |
| 20260504200754 | 20 | 245 | 11.3 | 22.5 | 0.00 | 0.00 | 0.00 | 47 | |
| 20260504200249 | 20 | 263 | 8.0 | 16.1 | 0.00 | 0.00 | 0.00 | 47 | |
| 20260504195746 | 20 | 269 | 16.1 | 25.7 | 0.00 | 0.00 | 0.00 | 48 | |
| 20260504195241 | 20 | 217 | 9.7 | 22.5 | 0.00 | 0.00 | 0.00 | 49 | |
| 20260504194739 | 19 | 226 | 8.0 | 16.1 | 0.00 | 0.00 | 0.00 | 50 | |
| 20260504194235 | 18 | 284 | 17.7 | 37.0 | 0.00 | 0.00 | 0.00 | 50 | |
| 20260504193731 | 18 | 265 | 8.0 | 16.1 | 0.00 | 0.00 | 0.00 | 50 | |
| 20260504193229 | 19 | 257 | 16.1 | 27.4 | 0.00 | 0.00 | 0.00 | 50 | |
| 20260504192727 | 18 | 113 | 3.2 | 16.1 | 0.00 | 0.00 | 0.00 | 52 | |
| 20260504192225 | 18 | 247 | 8.0 | 16.1 | 0.00 | 0.00 | 0.00 | 52 | |
| 20260504191724 | 18 | 227 | 8.0 | 25.7 | 0.00 | 0.00 | 0.00 | 51 | |
| 20260504191221 | 18 | 244 | 11.3 | 22.5 | 0.00 | 0.00 | 0.00 | 52 | |
| 20260504190715 | 18 | 218 | 12.9 | 16.1 | 0.00 | 0.00 | 0.00 | 52 | |
| 20260504190212 | 18 | 269 | 9.7 | 32.2 | 0.00 | 0.00 | 0.00 | 52 | |
| 20260504185709 | 18 | 257 | 20.9 | 22.5 | 0.00 | 0.00 | 0.00 | 51 | |
| 20260504185205 | 18 | 241 | 8.0 | 16.1 | 0.00 | 0.00 | 0.00 | 53 | |
| 20260504184701 | 18 | 264 | 16.1 | 20.9 | 0.00 | 0.00 | 0.00 | 53 | |
| 20260504184157 | 18 | 101 | 6.4 | 16.1 | 0.00 | 0.00 | 0.00 | 53 | |
| 20260504183654 | 18 | 180 | 8.0 | 11.3 | 0.00 | 0.00 | 0.00 | 52 | |
| 20260504183151 | 18 | 263 | 19.3 | 25.7 | 0.00 | 0.00 | 0.00 | 55 | |
| 20260504182649 | 18 | 252 | 8.0 | 22.5 | 0.00 | 0.00 | 0.00 | 52 | |
| 20260504182146 | 18 | 139 | 8.0 | 14.5 | 0.00 | 0.00 | 0.00 | 52 | |
| 20260504181643 | 18 | 212 | 6.4 | 16.1 | 0.00 | 0.00 | 0.00 | 51 | |
| 20260504181141 | 18 | 247 | 8.0 | 16.1 | 0.00 | 0.00 | 0.00 | 53 | |
| 20260504180640 | 18 | 149 | 3.2 | 11.3 | 0.00 | 0.00 | 0.00 | 54 | |
| 20260504180138 | 17 | 263 | 14.5 | 22.5 | 0.00 | 0.00 | 0.00 | 54 | |
| 20260504175635 | 17 | 274 | 19.3 | 27.4 | 0.00 | 0.00 | 0.00 | 54 | |
| 20260504175132 | 17 | 194 | 8.0 | 27.4 | 0.00 | 0.00 | 0.00 | 54 | |
| 20260504174630 | 17 | 234 | 14.5 | 20.9 | 0.00 | 0.00 | 0.00 | 54 | |
| 20260504174126 | 17 | 249 | 11.3 | 22.5 | 0.00 | 0.00 | 0.00 | 55 | |
| 20260504173623 | 17 | 196 | 6.4 | 17.7 | 0.00 | 0.00 | 0.00 | 53 | |
| 20260504173121 | 17 | 244 | 6.4 | 11.3 | 0.00 | 0.00 | 0.00 | 53 | |
| 20260504172617 | 17 | 187 | 11.3 | 25.7 | 0.00 | 0.00 | 0.00 | 54 | |
| 20260504172114 | 17 | 231 | 14.5 | 17.7 | 0.00 | 0.00 | 0.00 | 51 | |
| 20260504171610 | 17 | 244 | 9.7 | 17.7 | 0.00 | 0.00 | 0.00 | 52 | |
| 20260504171108 | 17 | 191 | 12.9 | 17.7 | 0.00 | 0.00 | 0.00 | 51 | |
| 20260504170603 | 17 | 266 | 9.7 | 17.7 | 0.00 | 0.00 | 0.00 | 50 | |
| 20260504150941 | 16 | 294 | 19.3 | 22.5 | 0.00 | 0.00 | 0.00 | 49 | |
| 20260504150438 | 16 | 231 | 6.4 | 16.1 | 0.00 | 0.00 | 0.00 | 49 | |
| 20260504140904 | 13 | 275 | 12.9 | 25.7 | 0.00 | 0.00 | 0.00 | 51 | |
| 20260504140400 | 13 | 216 | 14.5 | 20.9 | 0.00 | 0.00 | 0.00 | 51 | |
| 20260504130325 | 11 | 204 | 4.8 | 17.7 | 0.00 | 0.00 | 0.00 | 57 | |
| 20260504120248 | 8 | 219 | 4.8 | 6.4 | 0.00 | 0.00 | 0.00 | 66 | |
| 20260504110715 | 6 | 196 | 0.0 | 1.6 | 0.00 | 0.00 | 0.00 | 69 | |
| 20260504110212 | 6 | 195 | 3.2 | 4.8 | 0.00 | 0.00 | 0.00 | 69 | |
| 20260504100131 | 6 | 181 | 6.4 | 9.7 | 0.00 | 0.00 | 0.00 | 69 | |
| 20260504081524 | 6 | 199 | 1.6 | 1.6 | 0.00 | 0.00 | 0.00 | 62 | |
| 20260504081019 | 6 | 192 | 1.6 | 1.6 | 0.00 | 0.00 | 0.00 | 61 | |
| 20260504080516 | 6 | 192 | 1.6 | 4.8 | 0.00 | 0.00 | 0.00 | 61 | |
| 20260504050328 | 4 | 175 | 0.0 | 0.0 | 0.00 | 0.00 | 0.00 | 67 | |
| 20260504045826 | 4 | 184 | 0.0 | 0.0 | 0.00 | 0.00 | 0.00 | 66 | |
| 20260504045320 | 4 | 181 | 0.0 | 0.0 | 0.00 | 0.00 | 0.00 | 65 | |
| 20260504044818 | 4 | 167 | 0.0 | 0.0 | 0.00 | 0.00 | 0.00 | 66 | |
| 20260504044315 | 4 | 167 | 0.0 | 0.0 | 0.00 | 0.00 | 0.00 | 65 | |
| 20260504043812 | 4 | 171 | 0.0 | 0.0 | 0.00 | 0.00 | 0.00 | 64 | |
| 20260504043309 | 5 | 160 | 0.0 | 0.0 | 0.00 | 0.00 | 0.00 | 63 | |
| 20260504042807 | 5 | 196 | 0.0 | 0.0 | 0.00 | 0.00 | 0.00 | 62 | |
| 20260504042304 | 5 | 213 | 1.6 | 1.6 | 0.00 | 0.00 | 0.00 | 62 | |
| 20260504041759 | 4 | 191 | 0.0 | 1.6 | 0.00 | 0.00 | 0.00 | 62 | |
| 20260504041255 | 4 | 196 | 0.0 | 1.6 | 0.00 | 0.00 | 0.00 | 63 | |
| 20260504040752 | 4 | 189 | 0.0 | 1.6 | 0.00 | 0.00 | 0.00 | 64 | |
| 20260504040249 | 3 | 170 | 0.0 | 0.0 | 0.00 | 0.00 | 0.00 | 65 | |
| 20260504035745 | 3 | 163 | 0.0 | 0.0 | 0.00 | 0.00 | 0.00 | 65 |